Stewart International Airport
KSWF : now visible

Airfield :











YOU CAN JOIN US ON...

 
LOGIN :

Register | Disclaimer

   EN    FR    IT 

 









Legend :    VFR   Marginal VFR   IFR   Intensive IFR   Very Intensive IFR
Visi :
Ceiling :
>= 8 km
>= 3000ft
5 to 8 km
1000 to 3000 ft
1500m to 5 km
500 to 1000 ft
800 to 1500m
200 to 500 ft
< 800m
< 200 ft
Symbols :   Thunderstorms  Fog  Heavy snow  Heavy precipitations  Wind > 20 kt







- Airport Elevation : 491 ft
- IATA code : SWF


KSWF - Stewart International

CURRENT METAR :
  • 170945Z 00000KT 10SM SKC 10/10 A3014

EXPIRED METARs :
  • 170745Z VRB05KT 10SM SKC 13/11 A3012

TAF KSWF
Valid from the 17 at 08:00 until the 18 at 12:00 UTC


170826Z 1708/1812 VRB04KT P6SM SKC
FM171200 02005KT P6SM SKC
FM171400 04007KT P6SM SKC
FM180000 VRB03KT P6SM SKC AMD NOT SKED
No reported NOTAMs for that airfield.



MET'MAP, your aeronautical weather chart ! - Copyright ORBIFLY December 2007 - Disclaimer

ORBIFLY MET'MAP TEAM :

Programming & Development : Alexandra Zaïnal
Concept & Development : Baudouin d'Aumeries
Co-Development & Prog : Marc-Olivier Méhu
Technical & hardware support : Manuel Goepfert

Contact : metmap@orbifly.com




SOURCES & CREDITS :

   NOAA       Earth
Advisory